George, South Africa

9:38 PM SAST on February 06, 2016 (GMT +0200)
George

Weather History for FAGG - October, 2014

Change the Weather History Date:

Monday, October 20, 2014

  Actual Average Record
Temperature  
Mean Temperature 64 °F -  
Max Temperature 70 °F 68 °F 86 °F (2004)
Min Temperature 57 °F 52 °F 44 °F (2003)
Degree Days  
Heating Degree Days 2    
Growing Degree Days 14 (Base 50)    
Moisture  
Dew Point 58 °F    
Average Humidity 84    
Maximum Humidity 100    
Minimum Humidity 60    
Precipitation  
Precipitation 0.00 in - - ()
Sea Level Pressure  
Sea Level Pressure 30.08 in    
Wind  
Wind Speed 7 mph ()    
Max Wind Speed 23 mph    
Max Gust Speed -    
Visibility 7.4 miles    
Events      
Averages and records for this station are not official NWS values.
T = Trace of Precipitation, MM = Missing Value Source: Averaged Metar Reports

Daily Weather History Graph

Daily Weather History Graph

Search for Another Location

Airport or City:

Trip Planner

Search our weather history database for the weather conditions in past years. The results will help you decide how hot, cold, wet, or windy it might be!

Date:

Astronomy

Oct. 20, 2014 Rise Set
Actual Time 5:43 AM SAST 6:48 PM SAST
Civil Twilight 5:17 AM SAST 7:13 PM SAST
Nautical Twilight 4:46 AM SAST 7:44 PM SAST
Astronomical Twilight 4:15 AM SAST 8:16 PM SAST
Moon 3:40 AM SAST (10/20) 3:45 PM SAST (10/20)
Length of Visible Light 13h 56m
Length of Day
13h 04m
Waning Crescent, 12% of the Moon is Illuminated
Oct 20
Waning Crescent
Oct 23
New
Oct 31
First Quarter
Nov 7
Full
Nov 14
Last Quarter

Hourly Weather History & Observations

Time (SAST) Temp. Dew Point Humidity Pressure Visibility Wind Dir Wind Speed Gust Speed Precip Events Conditions
12:00 AM 59.0 °F 59.0 °F 100% 30.09 in 6.2 mi Variable 2.3 mph - N/A   Overcast
1:00 AM 57.2 °F 57.2 °F 100% 30.06 in 6.2 mi WSW 2.3 mph - N/A   Mostly Cloudy
2:00 AM 57 °F 57 °F 99% 30.07 in 6 mi NNW 4.6 mph - -   Overcast
2:00 AM 57.2 °F 57.2 °F 100% 30.06 in 6.2 mi NNW 4.6 mph - N/A   Overcast
3:00 AM 59.0 °F 57.2 °F 94% 30.06 in 6.2 mi Variable 2.3 mph - N/A   Overcast
4:00 AM 59.0 °F 57.2 °F 94% 30.06 in 6.2 mi Calm Calm - N/A   Overcast
5:00 AM 59 °F 58 °F 93% 30.08 in 12 mi 2.3 mph - -   Overcast
5:00 AM 59.0 °F 57.2 °F 94% 30.06 in 6.2 mi Variable 2.3 mph - N/A   Overcast
6:00 AM 57.2 °F 57.2 °F 100% 30.09 in 6.2 mi East 3.5 mph - N/A   Mostly Cloudy
7:00 AM 60.8 °F 57.2 °F 88% 30.09 in 6.2 mi East 5.8 mph - N/A   Partly Cloudy
8:00 AM 61 °F 56 °F 80% 30.14 in 12 mi East 10.4 mph - -   Mostly Cloudy
8:00 AM 60.8 °F 57.2 °F 88% 30.12 in 6.2 mi East 10.4 mph - N/A   Mostly Cloudy
9:00 AM 64.4 °F 55.4 °F 73% 30.12 in 6.2 mi East 6.9 mph - N/A   Scattered Clouds
10:00 AM 66.2 °F 57.2 °F 73% 30.12 in 6.2 mi SE 5.8 mph - N/A   Mostly Cloudy
11:00 AM 66 °F 58 °F 68% 30.12 in 12 mi ESE 13.8 mph - -   Mostly Cloudy
11:00 AM 66.2 °F 59.0 °F 78% 30.09 in 6.2 mi ESE 13.8 mph - N/A   Mostly Cloudy
12:00 PM 68.0 °F 59.0 °F 73% 30.09 in 6.2 mi East 11.5 mph - N/A   Mostly Cloudy
1:00 PM 68.0 °F 60.8 °F 78% 30.09 in 6.2 mi ESE 15.0 mph - N/A   Mostly Cloudy
2:00 PM 70 °F 59 °F 60% 30.06 in 12 mi ESE 17.3 mph - -   Mostly Cloudy
2:00 PM 69.8 °F 59.0 °F 68% 30.06 in 6.2 mi ESE 17.3 mph - N/A   Mostly Cloudy
3:00 PM 68.0 °F 57.2 °F 68% 30.04 in 6.2 mi East 19.6 mph - N/A   Mostly Cloudy
4:00 PM 68.0 °F 57.2 °F 68% 30.04 in 6.2 mi ESE 23.0 mph - N/A   Partly Cloudy
5:00 PM 67 °F 56 °F 60% 30.04 in 12 mi ESE 16.1 mph - -   Scattered Clouds
5:00 PM 68.0 °F 57.2 °F 68% 30.04 in 6.2 mi ESE 20.7 mph - N/A   Partly Cloudy
6:00 PM 62.6 °F 57.2 °F 82% 30.04 in 6.2 mi ESE 18.4 mph - N/A   Partly Cloudy
7:00 PM 60.8 °F 57.2 °F 88% 30.06 in - East 15.0 mph - N/A   Clear
8:00 PM 60 °F 58 °F 90% 30.08 in 12 mi ESE 12.7 mph - -   Clear
8:00 PM 60.8 °F 57.2 °F 88% 30.06 in - ESE 12.7 mph - N/A   Clear
9:00 PM 59.0 °F 59.0 °F 100% 30.09 in - ESE 8.1 mph - N/A   Clear
10:00 PM 59.0 °F 59.0 °F 100% 30.12 in 6.2 mi Variable 2.3 mph - N/A   Mostly Cloudy
11:00 PM 59.0 °F 59.0 °F 100% 30.09 in 6.2 mi Variable 1.2 mph - N/A   Overcast